SCP
0 0 0 0 0 0 0 0 0 0 0 0 0 0 0 0 0 0 0 0 0 0 0 0 0 0 0 0 0 0 0 0 0 0 0 0 0 0 0 0 0 0 0 0 0 0 0 0 0
0 0 0 0 0 0 0 0 0 0 0 0 0 0 0 0 0 0 0 0 0 0 0 0 0 0 0 0 0 0 0 0 0 0 0 0 0 0 0 0 0 0 0 0 0 0 0 0 0
0 0 0 0 0 0 0 0 0 0 0 0 0 0 0 0 0 0 0 0 0 0 0 0 0 0 0 0 0 0 0 0 0 0 0 0 0 0 0 0 0 0 0 0 0 0 0 0 0
0 0 0 0 0 0 0 0 0 0 0 0 0 0 0 0 0 0 0 0 0 0 0 0 0 0 0 0 0 0 0 0 0 0 0 0 0 0 0 0 0 0 0 0 0 0 0 0 0
0 0 0 0 0 0 0 0 0 0 0 0 0 0 0 0 0 0 0 0 0 0 0 0 0 0 0 0 0 0 0 0 0 0 0 0 0 0 0 0 0 0 0 0 0 0 0 0 0
0 0 0 0 0 0 0 0 0 0 0 0 0 0 0 0 0 0 0 0 0 0 0 0 0 0 0 0 0 0 0 0 0 0 0 0 0 0 0 0 0 0 0 0 0 0 0 0 0
0 0 0 0 0 0 0 0 0 0 0 0 0 0 0 0 0 0 0 0 0 0 0 0 0 0 0 0 0 0 0 0 0 0 0 0 0 0 0 0 0 0 0 0 0 0 0 0 0
0 0 0 0 0 0 0 0 0 0 0 0 0 0 0 0 0 0 0 0 0 0 0 0 0 0 0 0 0 0 0 0 0 0 0 0 0 0 0 0 0 0 0 0 0 0 0 0 0
0 0 0 0 0 0 0 0 0 0 0 0 0 0 0 0 0 0 0 0 0 0 0 0 0 0 0 0 0 0 0 0 0 0 0 0 0 0 0 0 0 0 0 0 0 0 0 0 0
0 0 0 0 0 0 0 0 0 0 0 0 0 0 0 0 0 0 0 0 0 0 0 0 0 0 0 0 0 0 0 0 0 0 0 0 0 0 0 0 0 0 0 0 0 0 0 0 0
0 0 0 0 0 0 0 0 0 0 0 0 0 0 0 0 0 0 0 0 0 0 0 0 0 0 0 0 0 0 -0 -0 0 0 0 0 0 0 0 0 0 0 0 0 0 0 0 0 0
0 0 0 0 0 0 0 0 0 0 0 0 0 0 0 0 0 0 0 0 0 0 0 0 0 0 0 0 0 0 0 0 0 0 0 0 0 0 0 0 0 0 0 0 0 0 0 0 0
0 0 0 0 0 0 0 0 0 0 0 0 0 0 0 0 0 0 0 0 0 0 0 0 0 0 0 0 0 0 0 0 0 0 0 0 0 0 0 0 0 0 0 0 0 0 0 0 0
0 0 0 0 0 0 0 0 0 0 0 0 0 0 0 0 0 0 0 0 0 0 0 0 0 0 0 0 0 0 0 0 0 0 0 0 0 0 0 0 0 0 0 0 0 0 0 0 0
0 0 0 0 0 0 0 0 0 0 0 0 0 0 0 0 0 0 0 0 0 0 0 0 0 0 0 0 0 0 0 0 0 0 0 0 0 0 0 0 0 0 0 0 0 0 0 0 0
0 0 0 0 0 0 0 0 0 0 0 0 0 0 0 0 0 0 0 0 0 0 0 0 0 0 0 0 0 0 0 0 0 0 0 0 0 0 0 0 0 0 0 0 0 0 0 0 0
0 0 0 0 0 0 0 0 0 0 0 0 0 0 0 0 0 0 0 0 0 0 0 0 0 0 0 0 0 0 0 0 0 0 0 0 0 0 0 0 0 0 0 0 0 0 0 0 0
0 0 0 0 0 0 0 0 0 0 0 0 0 0 0 0 0 0 0 0 0 0 0 0 0 0 0 0 0 0 0 0 0 0 0 0 0 0 0 0 0 0 0 0 0 0 0 0 0
0 0 0 0 0 0 0 0 0 0 0 0 0 0 0 0 0 0 0 0 0 0 0 0 0 0 0 0 0 0 0 0 0 0 0 0 0 0 0 0 0 0 0 0 0 0 0 0 0
0 0 0 0 0 0 0 0 0 0 0 0 0 0 0 0 0 0 0 0 0 0 0 0 0 0 0 0 0 0 0 0 0 0 0 0 0 0 0 0 0 0 0 0 0 0 0 0 0
0 0 0 0 0 0 0 0 0 0 0 0 0 0 0 0 0 0 0 0 0 0 0 0 0 0 0 0 0 0 0 0 0 0 0 0 0 0 0 0 0 0 0 0 0 0 0 0 0
0 0 0 0 0 0 0 0 0 0 0 0 0 0 0 0 0 0 0 0 0 0 0 0 0 0 0 0 0 0 0 0 0 0 0 0 0 0 0 0 0 0 0 0 0 0 0 0 0
0 0 0 0 0 0 0 0 0 0 0 0 0 0 0 0 0 0 0 0 0 0 0 0 0 0 0 0 0 0 0 0 0 0 0 0 0 0 0 0 0 0 0 0 0 0 0 0 0
0 0 0 0 0 0 0 0 0 0 0 0 0 0 0 0 0 0 0 0 0 0 0 0 0 0 0 0 0 0 0 0 0 0 0 0 0 0 0 0 0 0 0 0 0 0 0 0 0
0 0 0 0 0 0 0 0 0 0 0 0 0 0 0 0 0 0 0 0 0 0 0 0 0 0 0 0 0 0 0 0 0 0 0 0 0 0 0 0 0 0 0 0 0 0 0 0 0
0 0 0 0 0 0 0 0 0 0 0 0 0 0 0 0 0 0 0 0 0 0 0 0 0 0 0 0 0 0 0 0 0 0 0 0 0 0 0 0 0 0 0 0 0 0 0 0 0
0 0 0 0 0 0 0 0 0 0 0 0 0 0 0 0 0 0 0 0 0 0 0 0 0 0 0 0 0 0 0 0 0 0 0 0 0 0 0 0 0 0 0 0 0 0 0 0 0
0 0 0 0 0 0 0 0 0 0 0 0 0 0 0 0 0 0 0 0 0 0 0 0 0 0 0 0 0 0 0 0 0 0 0 0 0 0 0 0 0 0 0 0 0 0 0 0 0
0 0 0 0 0 0 0 0 0 0 0 0 0 0 0 0 0 0 0 0 0 0 0 0 0 0 0 0 0 0 0 0 0 0 0 0 0 0 0 0 0 0 0 0 0 0 0 0 0
0 0 0 0 0 0 0 0 0 0 0 0 0 0 0 0 0 0 0 0 0 0 0 0 0 0 0 0 0 0 0 0 0 0 0 0 0 0 0 0 0 0 0 0 0 0 0 0 0
Wind_Speed
3 2 2 3 5 5 3 1 1 2 4 4 8 9 8 6 4 5 2 5 7 5 4 6 9 9 10 10 10 10 10 10 11 11 12 12 12 11 11 11 11 11 11 11 10 10 9 9 10
2 1 3 4 5 4 2 1 3 3 5 5 8 8 7 6 4 6 3 5 7 6 4 6 9 9 10 10 10 10 10 10 11 11 11 11 11 11 11 11 12 11 11 11 11 11 12 11 11
1 0 3 4 3 3 3 1 4 4 4 5 5 6 5 4 4 3 5 8 7 5 4 6 9 9 10 9 10 10 10 11 11 11 11 11 11 11 11 11 11 11 11 11 11 11 12 11 11
2 3 4 5 4 1 3 3 4 6 5 5 6 6 4 2 3 5 8 8 7 5 3 5 9 9 9 9 9 9 10 10 11 11 11 10 11 11 10 10 11 11 11 11 10 10 11 11 11
3 4 5 4 3 1 2 3 4 5 4 5 7 6 3 3 6 9 9 8 8 5 3 5 9 9 9 8 8 9 9 9 10 10 10 10 10 10 10 10 10 10 10 10 10 10 10 11 11
4 4 5 3 2 2 2 3 6 8 7 6 7 5 2 2 6 7 8 7 6 6 4 5 8 9 8 8 8 8 8 8 8 8 8 8 9 9 9 9 9 9 8 9 9 9 10 11 11
4 4 3 3 2 2 2 3 6 6 5 4 5 6 3 2 4 7 7 7 5 5 4 3 3 5 7 7 7 7 7 7 7 8 8 7 8 8 8 8 8 8 8 8 8 9 10 11 11
4 4 3 2 3 1 1 3 4 5 4 4 4 6 4 4 4 6 6 6 5 4 4 3 2 2 2 3 5 6 6 6 6 6 6 6 6 6 7 6 7 7 7 7 7 8 9 11 12
4 5 2 1 3 2 3 5 3 5 6 5 4 4 5 7 6 6 5 4 4 4 3 2 2 2 2 2 3 3 4 4 4 3 4 4 2 2 3 4 5 5 5 6 6 7 8 10 11
5 3 1 2 3 4 4 5 4 5 6 5 5 6 7 7 6 6 6 5 4 4 4 3 3 3 2 2 2 1 1 1 1 1 1 1 1 1 2 3 4 4 4 5 5 6 7 6 4
3 4 1 2 4 4 5 4 4 7 4 4 7 8 7 6 5 5 5 5 4 4 4 3 3 3 2 1 1 0 1 1 0 0 1 1 1 1 1 2 2 3 4 3 4 4 3 4 3
3 2 3 3 3 4 4 5 5 4 4 6 8 8 7 6 5 5 4 4 3 3 3 3 3 3 2 2 2 1 1 1 1 1 2 2 1 1 1 1 1 2 2 3 3 3 4 5 5
3 3 4 4 5 5 7 6 6 3 5 7 8 7 7 5 4 4 4 4 4 3 2 2 3 3 3 3 2 2 1 1 2 2 2 3 2 2 2 2 2 2 2 3 3 4 4 4 4
3 3 3 4 4 4 7 5 5 3 6 7 7 6 5 5 4 4 4 4 4 4 3 2 3 3 4 3 2 2 2 2 2 2 3 3 2 3 3 2 2 2 2 3 4 4 4 3 4
3 3 2 1 2 3 6 4 2 4 7 7 6 5 5 4 4 5 5 5 5 4 3 3 4 4 4 3 3 2 2 3 3 3 3 3 3 3 3 3 3 3 3 4 4 5 4 4 5
2 3 1 2 3 4 6 2 3 5 8 6 5 4 4 3 3 3 4 5 5 4 4 3 4 4 4 3 3 3 3 3 3 3 3 4 4 4 3 3 3 3 3 3 4 4 4 4 4
1 2 3 2 3 4 4 3 4 4 7 6 5 4 4 3 1 2 3 5 5 5 5 4 4 4 4 4 3 3 3 3 2 3 3 3 4 4 4 3 2 3 3 3 4 3 3 4 4
4 3 3 3 3 4 4 4 5 5 7 7 6 5 5 4 4 3 4 4 5 5 5 5 4 4 4 3 3 3 3 2 2 2 3 4 4 4 4 3 3 4 4 3 3 4 3 3 3
3 2 2 4 4 4 4 4 6 6 6 6 6 6 6 6 5 4 4 4 5 5 5 5 4 3 3 2 2 2 2 1 2 2 3 3 3 3 4 3 3 3 3 3 3 3 4 3 3
2 2 1 2 3 4 4 3 4 6 7 8 8 8 8 5 4 4 4 4 5 5 5 5 5 4 3 2 2 2 2 1 1 1 2 2 3 3 3 3 3 3 3 4 3 3 2 1 1
2 3 4 3 1 1 2 2 2 3 4 5 6 7 7 8 7 6 6 5 5 5 6 6 5 5 4 4 3 3 3 2 2 2 1 1 2 2 2 3 3 3 3 3 2 2 3 2 0
2 3 3 3 2 2 2 2 5 5 4 6 7 7 7 7 7 6 6 6 6 6 6 6 5 5 4 5 4 5 3 2 2 2 1 1 2 2 2 3 3 3 2 3 2 2 2 2 1
3 2 1 1 2 1 1 2 6 2 5 8 8 9 8 8 8 8 7 7 6 6 5 5 5 5 4 5 6 5 3 2 2 1 2 1 1 2 2 3 3 3 2 2 2 2 2 2 2
1 4 5 5 3 2 4 3 5 4 8 8 8 9 8 8 8 7 6 5 5 5 5 5 5 4 4 5 5 5 5 4 4 3 3 1 1 1 1 2 3 2 2 2 2 2 2 1 2
3 5 4 4 3 4 2 2 6 6 6 8 10 10 8 8 7 7 6 6 5 5 5 6 6 5 4 5 5 5 5 5 6 5 4 3 2 1 1 2 2 2 2 2 2 2 2 2 2
3 7 6 3 3 4 2 2 5 4 2 4 6 8 7 7 7 8 8 7 6 6 6 6 6 5 5 5 5 4 5 4 3 5 5 4 3 3 3 3 2 2 2 2 2 2 1 2 2
3 2 6 5 1 1 3 2 4 3 3 4 5 7 7 7 7 7 7 6 6 5 5 6 6 5 5 5 4 4 4 4 4 4 4 3 3 3 4 3 3 2 2 2 3 2 1 2 1
4 5 4 4 2 2 3 3 4 3 2 3 4 5 6 6 6 5 6 6 5 5 4 4 5 5 5 5 4 4 4 4 4 4 5 5 4 4 4 3 3 2 2 2 3 2 2 2 1
2 2 3 3 3 4 2 5 4 6 5 5 5 5 6 6 6 5 5 5 5 4 4 3 3 3 3 4 4 3 3 3 3 4 5 5 5 5 5 4 4 3 3 2 3 2 2 3 2
4 4 5 4 3 3 3 6 4 4 5 5 5 4 4 5 5 5 5 4 4 4 3 3 3 3 3 3 4 4 3 3 3 3 4 5 5 4 5 4 4 3 3 3 3 3 2 3 3
Wind_Direction
316 338 68 54 55 55 54 20 100 64 51 57 71 78 81 65 84 124 174 140 125 124 115 108 101 95 92 90 89 88 87 88 91 93 93 91 89 86 87 89 87 83 79 74 68 66 77 84 80
348 352 59 55 77 77 31 52 93 90 136 118 75 74 75 71 78 107 120 133 124 123 119 112 106 99 95 92 91 93 92 93 95 94 93 92 90 87 86 86 86 81 78 75 70 66 75 80 76
318 12 77 67 84 132 145 168 122 95 98 91 76 56 68 89 98 116 143 135 121 114 114 121 112 104 99 95 95 97 98 99 98 96 94 92 91 89 87 86 85 82 79 77 73 70 71 73 72
59 44 54 70 78 99 140 152 132 99 67 62 94 68 56 59 126 134 137 129 119 114 114 125 117 109 105 100 98 100 100 100 100 100 97 95 92 89 89 88 87 84 81 79 74 71 70 70 71
74 71 62 65 68 45 76 119 110 95 76 80 92 89 60 26 106 123 130 127 123 118 118 125 120 116 114 109 106 105 103 101 100 100 99 97 93 90 88 88 88 85 84 82 78 74 72 70 71
54 63 76 84 82 71 68 92 85 91 104 103 98 100 92 105 112 128 131 130 128 127 119 120 124 122 120 116 113 115 111 107 105 105 103 100 97 96 94 93 91 89 87 85 80 76 73 72 74
95 82 95 119 100 62 92 91 92 102 101 96 112 104 124 125 133 139 134 130 126 126 122 113 126 123 125 123 119 118 117 114 109 108 107 104 102 102 102 101 98 94 93 87 80 75 72 72 77
119 94 72 85 111 93 89 87 99 91 85 87 97 126 155 168 143 128 128 125 123 122 124 130 131 120 120 125 128 125 121 117 110 107 108 106 103 102 105 102 99 98 96 91 81 75 73 72 75
84 76 84 166 148 146 115 98 74 64 77 55 60 112 143 141 125 114 112 111 125 133 130 141 140 143 142 160 155 136 128 120 115 109 108 100 79 81 94 106 102 97 92 88 85 79 73 73 73
79 96 186 183 154 130 98 103 117 84 74 69 73 86 114 119 122 128 133 135 139 144 152 160 168 170 168 169 127 119 121 93 88 91 96 93 96 92 104 103 99 84 72 72 82 80 72 68 65
113 139 139 87 115 112 95 81 81 109 99 145 142 137 133 124 125 133 145 145 149 150 149 162 173 166 164 137 130 85 62 57 30 80 138 116 97 60 54 58 45 42 57 55 63 65 67 72 75
106 114 114 120 111 106 108 100 78 88 147 149 140 141 136 134 139 146 151 149 140 125 133 140 139 142 143 129 128 117 97 92 82 88 116 119 108 95 85 78 66 54 60 70 65 71 76 80 81
98 119 120 119 101 103 97 98 106 104 134 133 132 130 131 142 152 153 155 154 141 137 144 140 125 130 123 115 111 105 102 101 94 79 95 109 110 111 103 89 81 76 79 84 78 77 80 77 81
147 117 118 117 107 108 111 107 102 156 144 132 133 138 147 154 154 146 147 147 150 152 151 141 123 127 117 112 109 106 97 86 76 70 77 92 104 105 98 91 83 79 82 83 86 87 84 76 78
106 95 62 152 138 140 108 73 141 176 146 139 148 152 154 163 154 151 161 160 162 158 150 136 133 119 112 112 114 102 90 83 71 67 69 75 88 101 103 96 82 76 81 81 83 75 73 76 77
70 85 110 258 177 168 126 162 228 173 141 144 155 155 153 173 171 160 153 158 157 147 145 142 128 116 114 118 110 96 85 80 72 68 67 71 73 85 95 94 90 91 87 83 89 82 78 69 70
48 163 203 251 208 158 137 177 215 176 149 156 165 166 156 164 177 167 154 156 157 153 144 131 118 118 121 121 108 93 86 79 77 71 70 74 74 79 88 93 92 90 87 86 96 84 92 90 80
213 199 206 209 215 146 153 187 192 179 165 173 176 175 169 176 198 181 158 149 153 148 141 133 123 120 116 107 92 78 70 64 63 73 75 81 80 85 89 93 92 92 89 80 89 93 80 91 95
197 182 201 217 205 158 181 193 198 188 176 180 182 182 185 193 196 172 154 143 135 135 137 137 126 123 114 110 108 103 97 77 60 74 84 87 85 85 96 100 96 96 101 107 107 100 89 84 98
223 174 206 249 205 171 183 211 203 184 187 184 185 189 191 188 177 176 159 152 152 154 152 150 149 144 137 137 139 139 136 125 105 66 71 85 90 88 106 113 112 105 100 97 101 104 100 105 113
244 192 200 200 184 128 121 328 250 226 204 192 191 186 187 186 182 181 172 169 163 163 165 164 166 157 151 137 112 92 71 61 53 55 53 65 102 93 99 116 115 119 118 126 134 126 126 143 244
248 244 191 167 121 247 163 251 265 218 213 209 202 192 191 191 185 182 177 175 174 176 170 166 166 162 156 141 140 143 143 155 190 181 168 120 104 107 103 112 118 124 127 139 158 140 141 143 179
215 236 165 159 144 317 269 186 280 200 217 223 208 199 198 191 185 185 184 183 179 173 167 165 164 163 161 156 157 153 152 169 167 148 139 126 96 106 112 115 116 125 137 148 139 130 131 140 157
171 40 33 46 70 302 240 182 270 221 213 210 204 198 196 190 186 185 185 175 172 167 162 157 161 169 165 162 165 163 163 159 153 159 157 155 136 101 121 120 118 129 137 145 146 144 135 135 131
83 79 33 3 11 259 253 165 250 246 216 196 193 192 191 183 176 177 174 172 172 171 171 164 166 174 175 171 176 180 176 172 176 178 175 170 168 177 193 140 136 139 158 156 142 132 128 138 132
170 138 151 193 230 282 330 218 262 279 203 163 167 168 169 174 175 177 180 178 177 176 175 173 176 180 179 180 186 188 181 176 186 187 177 180 181 187 184 164 157 158 162 151 136 121 133 127 130
141 165 168 148 210 270 292 300 319 8 67 107 134 148 163 174 178 179 178 176 174 174 179 183 183 188 186 186 182 184 185 185 190 188 177 178 179 176 170 167 162 159 154 149 137 125 134 127 127
152 154 103 123 166 246 286 257 236 234 191 140 142 159 172 173 169 165 169 174 176 176 181 184 185 192 190 181 184 185 186 193 188 175 179 181 179 168 160 165 158 152 146 140 130 133 142 132 138
127 119 119 131 161 165 240 269 233 200 187 171 173 171 168 163 163 166 171 175 169 165 170 177 185 186 192 187 181 173 176 180 182 179 183 179 173 167 168 175 166 162 158 147 137 150 153 150 147
166 170 146 153 219 173 179 266 287 186 182 171 172 171 161 156 162 163 162 157 156 163 170 175 183 185 202 195 180 177 168 159 169 180 182 174 170 171 174 169 167 170 164 158 157 168 168 168 166